Wright-Patt AFB, OH

1:42 AM EDT on May 30, 2017 (GMT -0400)
Wright-Patterson Air Force Base

Weather History for KFFO - March, 2013

Change the Weather History Date:

Saturday, March 16, 2013

  Actual Average Record
Temperature  
Mean Temperature 42 °F -  
Max Temperature 51 °F 47 °F 74 °F (2012)
Min Temperature 33 °F 27 °F 15 °F (1997)
Degree Days  
Heating Degree Days 22    
Moisture  
Dew Point 37 °F    
Average Humidity 84    
Maximum Humidity 100    
Minimum Humidity 74    
Precipitation  
Precipitation 0.04 in - - ()
Sea Level Pressure  
Sea Level Pressure 29.80 in    
Wind  
Wind Speed 7 mph (NW)    
Max Wind Speed 17 mph    
Max Gust Speed 28 mph    
Visibility 8 miles    
Events Rain    
Averages and records for this station are not official NWS values.
T = Trace of Precipitation, MM = Missing Value Source: NWS Daily Summary

Daily Weather History Graph

Daily Weather History Graph

Search for Another Location

Airport or City:

Trip Planner

Search our weather history database for the weather conditions in past years. The results will help you decide how hot, cold, wet, or windy it might be!

Date:

Astronomy

Mar. 16, 2013 Rise Set
Actual Time 7:45 AM EDT 7:44 PM EDT
Civil Twilight 7:18 AM EDT 8:11 PM EDT
Nautical Twilight 6:47 AM EDT 8:42 PM EDT
Astronomical Twilight 6:15 AM EDT 9:14 PM EDT
Moon 10:15 AM EDT (3/16) No Moon Set
Length of Visible Light 12h 52m
Length of Day
11h 58m
Waxing Crescent, 23% of the Moon is Illuminated
Mar 16
Waxing Crescent
Mar 19
First Quarter
Mar 27
Full
Apr 3
Last Quarter
Apr 10
New

Hourly Weather History & Observations

Time (EDT) Temp. Windchill Dew Point Humidity Pressure Visibility Wind Dir Wind Speed Gust Speed Precip Events Conditions
12:13 AM 44.6 °F - 39.2 °F 81% 29.82 in 10.0 mi Calm Calm - N/A Rain Light Rain
12:55 AM 43.2 °F 39.7 °F 40.5 °F 90% 29.82 in 8.0 mi NNE 5.8 mph - 0.01 in Rain Light Rain
1:18 AM 42.8 °F - 39.2 °F 87% 29.78 in 10.0 mi NE 2.3 mph - N/A   Mostly Cloudy
1:55 AM 42.8 °F 39.3 °F 39.2 °F 87% 29.75 in 10.0 mi SE 5.8 mph - 0.00 in   Mostly Cloudy
2:12 AM 42.8 °F 37.5 °F 39.2 °F 87% 29.76 in 10.0 mi SSE 9.2 mph - N/A Rain Light Rain
2:46 AM 42.8 °F 36.6 °F 39.2 °F 87% 29.72 in 10.0 mi SE 11.5 mph - N/A   Overcast
2:55 AM 43.9 °F 38.3 °F 39.4 °F 84% 29.71 in 10.0 mi SE 10.4 mph - 0.03 in   Overcast
3:55 AM 44.1 °F 41.5 °F 40.3 °F 87% 29.69 in 10.0 mi East 4.6 mph - N/A   Overcast
4:55 AM 43.2 °F 41.5 °F 39.7 °F 88% 29.66 in 10.0 mi ESE 3.5 mph - N/A   Mostly Cloudy
5:55 AM 42.1 °F 40.2 °F 39.2 °F 90% 29.65 in 10.0 mi SE 3.5 mph - N/A   Mostly Cloudy
6:55 AM 41.2 °F 36.0 °F 38.7 °F 91% 29.67 in 6.0 mi NW 8.1 mph - N/A   Mostly Cloudy
7:55 AM 39.4 °F 36.1 °F 38.3 °F 96% 29.65 in 4.0 mi South 4.6 mph - N/A   Mostly Cloudy
8:38 AM 37.4 °F 34.9 °F 37.4 °F 100% 29.63 in 3.0 mi SSE 3.5 mph - N/A   Mostly Cloudy
8:55 AM 42.6 °F 40.9 °F 42.4 °F 99% 29.63 in 7.0 mi Variable 3.5 mph - N/A   Mostly Cloudy
9:55 AM 47.1 °F - 43.9 °F 88% 29.63 in 10.0 mi SSW 3.5 mph - N/A   Mostly Cloudy
10:38 AM 50.0 °F - 44.6 °F 82% 29.65 in 10.0 mi West 5.8 mph - N/A   Mostly Cloudy
10:55 AM 51.4 °F - 45.1 °F 79% 29.65 in 10.0 mi West 10.4 mph - N/A   Mostly Cloudy
11:14 AM 51.8 °F - 44.6 °F 76% 29.66 in 10.0 mi WNW 8.1 mph - N/A   Mostly Cloudy
11:46 AM 50.0 °F - 42.8 °F 76% 29.68 in 10.0 mi NW 12.7 mph - N/A   Overcast
11:55 AM 49.5 °F - 43.3 °F 79% 29.69 in 10.0 mi NW 13.8 mph - N/A   Overcast
12:34 PM 50.0 °F - 42.8 °F 76% 29.72 in 6.0 mi WNW 11.5 mph 19.6 mph N/A   Mostly Cloudy
12:55 PM 50.7 °F - 42.8 °F 74% 29.73 in 6.0 mi WNW 11.5 mph - N/A   Mostly Cloudy
1:55 PM 47.5 °F - 40.5 °F 77% 29.78 in 6.0 mi NW 16.1 mph - N/A   Overcast
2:16 PM 46.4 °F 40.1 °F 39.2 °F 76% 29.80 in 5.0 mi NW 15.0 mph - N/A   Haze
2:55 PM 44.1 °F 36.8 °F 38.1 °F 80% 29.82 in 5.0 mi NW 16.1 mph 27.6 mph N/A   Haze
3:55 PM 41.5 °F 34.6 °F 36.3 °F 82% 29.86 in 10.0 mi NW 12.7 mph - N/A   Overcast
4:35 PM 41.0 °F 32.5 °F 35.6 °F 81% 29.88 in 6.0 mi NNW 17.3 mph - N/A   Overcast
4:55 PM 39.6 °F 33.0 °F 35.4 °F 85% 29.89 in 6.0 mi NNW 10.4 mph - N/A   Overcast
5:22 PM 37.4 °F 28.9 °F 35.6 °F 93% 29.91 in 5.0 mi NNW 13.8 mph - N/A   Overcast
5:49 PM 37.4 °F 29.3 °F 32.0 °F 81% 29.93 in 7.0 mi NW 12.7 mph - N/A   Overcast
5:55 PM 37.9 °F 31.5 °F 33.4 °F 84% 29.93 in 7.0 mi NW 9.2 mph - N/A   Overcast
6:55 PM 36.5 °F 28.2 °F 32.2 °F 84% 29.97 in 10.0 mi NNW 12.7 mph - N/A   Overcast
7:10 PM 35.6 °F 26.6 °F 32.0 °F 87% 29.98 in 10.0 mi NW 13.8 mph - N/A   Overcast
7:42 PM 35.6 °F 27.5 °F 30.2 °F 81% 29.99 in 10.0 mi NNW 11.5 mph - N/A   Overcast
7:55 PM 35.6 °F 27.5 °F 30.2 °F 81% 29.99 in 10.0 mi NNW 11.5 mph - N/A   Overcast
8:30 PM 35.6 °F 27.1 °F 30.2 °F 81% 29.99 in 10.0 mi NNW 12.7 mph - N/A   Overcast
8:55 PM 34.9 °F 27.1 °F 30.0 °F 82% 29.99 in 10.0 mi North 10.4 mph - N/A   Overcast
9:55 PM 34.5 °F 26.7 °F 29.3 °F 81% 30.01 in 10.0 mi North 10.4 mph - N/A   Overcast
10:55 PM 34.0 °F 27.2 °F 28.9 °F 82% 30.04 in 10.0 mi NNW 8.1 mph - N/A   Overcast
11:55 PM 33.8 °F 27.0 °F 28.4 °F 81% 30.06 in 10.0 mi NNW 8.1 mph - N/A   Overcast